Weather History for Athens, OH

Change the Weather History Date:

Friday, January 4, 2013

  Actual Average (KPKB) Record (KPKB)
Temperature  
Mean Temperature 32 °F 32 °F  
Max Temperature 36 °F 40 °F 72 °F (1997)
Min Temperature 29 °F 24 °F -9 °F (1918)
Degree Days  
Heating Degree Days 32 33  
Month to date heating degree days 132  
Since 1 July heating degree days 2042  
Cooling Degree Days 0 0  
Month to date cooling degree days 0  
Year to date cooling degree days 0  
Moisture  
Dew Point 22 °F    
Average Humidity 66    
Maximum Humidity 74    
Minimum Humidity 56    
Precipitation  
Precipitation 0.00 in 0.09 in 0.89 in (2004)
Month to date precipitation 0.38  
Year to date precipitation 0.38  
Sea Level Pressure  
Sea Level Pressure 30.29 in    
Wind  
Wind Speed 10 mph (WSW)    
Max Wind Speed 17 mph    
Max Gust Speed 24 mph    
Visibility 10 miles    
Events      
T = Trace of Precipitation, MM = Missing Value Source: NWS Daily Summary

Daily Weather History Graph

Daily Weather History Graph

Search for Another Location

Airport:

Trip Planner

Search our weather history database for the weather conditions in past years. The results will help you decide how hot, cold, wet, or windy it might be!

Date:

Astronomy

Jan. 04, 2013 Rise Set
Actual Time 7:48 AM EST 5:19 PM EST
Civil Twilight 7:18 AM EST 5:49 PM EST
Nautical Twilight 6:45 AM EST 6:22 PM EST
Astronomical Twilight 6:12 AM EST 6:55 PM EST
Moon No Moon Rise 11:33 AM EST (1/4)
Length of Visible Light 10h 30m
Length of Day
9h 30m
Waning Gibbous, 55% of the Moon is Illuminated
Jan 4
Waning Gibbous
Jan 4
Last Quarter
Jan 11
New
Jan 18
First Quarter
Jan 26
Full

Hourly Weather History & Observations

Time (EST) Temp. Windchill Dew Point Humidity Pressure Visibility Wind Dir Wind Speed Gust Speed Precip Events Conditions
12:15 AM 31.8 °F 23.9 °F 20.1 °F 62% 30.29 in 10.0 mi West 9.2 mph 18.4 mph N/A   Overcast
12:35 AM 31.5 °F 22.3 °F 20.3 °F 63% 30.29 in 10.0 mi West 11.5 mph 16.1 mph N/A   Overcast
1:15 AM 31.1 °F 21.9 °F 20.8 °F 66% 30.27 in 10.0 mi West 11.5 mph - N/A   Overcast
1:35 AM 30.9 °F 22.2 °F 21.2 °F 67% 30.27 in 10.0 mi West 10.4 mph - N/A   Overcast
1:55 AM 30.9 °F 23.5 °F 21.2 °F 67% 30.27 in 10.0 mi WNW 8.1 mph - N/A   Overcast
2:15 AM 30.9 °F 20.7 °F 21.6 °F 68% 30.28 in 10.0 mi WNW 13.8 mph - N/A   Overcast
2:35 AM 30.7 °F 22.6 °F 21.6 °F 69% 30.29 in 10.0 mi West 9.2 mph - N/A   Overcast
2:55 AM 30.7 °F 22.0 °F 21.6 °F 69% 30.29 in 10.0 mi West 10.4 mph - N/A   Overcast
3:35 AM 30.7 °F 20.9 °F 21.7 °F 69% 30.29 in 10.0 mi West 12.7 mph 17.3 mph N/A   Overcast
4:15 AM 30.6 °F 22.4 °F 21.7 °F 70% 30.29 in 10.0 mi WSW 9.2 mph - N/A   Overcast
6:55 AM 30.9 °F 23.5 °F 22.1 °F 70% 30.28 in 10.0 mi SW 8.1 mph - N/A   Overcast
7:15 AM 30.9 °F 22.8 °F 22.5 °F 71% 30.29 in 10.0 mi SW 9.2 mph - N/A   Overcast
7:35 AM 30.9 °F 22.2 °F 22.5 °F 71% 30.29 in 10.0 mi WSW 10.4 mph 19.6 mph N/A   Overcast
7:55 AM 30.7 °F 22.0 °F 22.8 °F 72% 30.29 in 10.0 mi SW 10.4 mph - N/A   Overcast
8:15 AM 30.6 °F 21.8 °F 23.0 °F 74% 30.29 in 10.0 mi WSW 10.4 mph - N/A   Overcast
8:35 AM 30.9 °F 21.7 °F 22.5 °F 71% 30.30 in 10.0 mi WSW 11.5 mph 16.1 mph N/A   Overcast
8:55 AM 30.7 °F 20.9 °F 21.9 °F 70% 30.30 in 10.0 mi West 12.7 mph 24.2 mph N/A   Overcast
9:15 AM 30.6 °F 20.2 °F 20.1 °F 65% 30.31 in 10.0 mi West 13.8 mph 19.6 mph N/A   Overcast
9:35 AM 30.7 °F 24.1 °F 21.2 °F 68% 30.32 in 10.0 mi West 6.9 mph - N/A   Overcast
9:55 AM 31.1 °F 23.1 °F 21.4 °F 67% 30.32 in 10.0 mi WSW 9.2 mph - N/A   Overcast
10:15 AM 31.6 °F 24.4 °F 21.9 °F 67% 30.33 in 10.0 mi WSW 8.1 mph - N/A   Overcast
10:35 AM 31.6 °F 21.6 °F 21.7 °F 67% 30.33 in 10.0 mi WSW 13.8 mph - N/A   Overcast
10:55 AM 32.0 °F 24.2 °F 21.4 °F 65% 30.33 in 10.0 mi West 9.2 mph - N/A   Overcast
11:15 AM 32.0 °F 24.8 °F 21.9 °F 66% 30.33 in 10.0 mi WSW 8.1 mph - N/A   Overcast
11:35 AM 32.2 °F 24.4 °F 22.6 °F 68% 30.32 in 10.0 mi WSW 9.2 mph - N/A   Overcast
11:55 AM 32.4 °F 22.5 °F 22.5 °F 67% 30.32 in 10.0 mi WSW 13.8 mph 17.3 mph N/A   Mostly Cloudy
12:15 PM 32.7 °F 23.0 °F 22.3 °F 65% 30.31 in 10.0 mi WSW 13.8 mph - N/A   Mostly Cloudy
12:35 PM 32.9 °F 25.3 °F 22.6 °F 66% 30.30 in 10.0 mi WSW 9.2 mph - N/A   Overcast
12:55 PM 32.9 °F 23.7 °F 22.1 °F 65% 30.29 in 10.0 mi WSW 12.7 mph - N/A   Overcast
1:15 PM 33.8 °F 25.8 °F 22.1 °F 62% 30.29 in 10.0 mi West 10.4 mph - N/A   Overcast
1:35 PM 34.5 °F 25.7 °F 22.1 °F 61% 30.27 in 10.0 mi WSW 12.7 mph - N/A   Overcast
1:55 PM 35.6 °F 27.1 °F 22.1 °F 58% 30.26 in 10.0 mi WSW 12.7 mph 16.1 mph N/A   Mostly Cloudy
2:15 PM 35.4 °F 26.8 °F 21.9 °F 58% 30.25 in 10.0 mi WSW 12.7 mph 16.1 mph N/A   Scattered Clouds
2:35 PM 36.0 °F 27.5 °F 22.3 °F 58% 30.25 in 10.0 mi WSW 12.7 mph 19.6 mph N/A   Clear
2:55 PM 36.1 °F 26.9 °F 22.3 °F 57% 30.25 in 10.0 mi WSW 15.0 mph - N/A   Clear
3:35 PM 36.0 °F 26.3 °F 22.1 °F 57% 30.25 in 10.0 mi WSW 16.1 mph 24.2 mph N/A   Scattered Clouds
3:55 PM 36.5 °F 27.4 °F 22.1 °F 56% 30.26 in 10.0 mi WSW 15.0 mph - N/A   Clear
4:15 PM 36.5 °F 26.7 °F 22.1 °F 56% 30.27 in 10.0 mi WSW 17.3 mph 23.0 mph N/A   Clear
4:35 PM 36.0 °F 27.1 °F 22.6 °F 58% 30.26 in 10.0 mi WSW 13.8 mph - N/A   Clear
4:55 PM 35.6 °F 27.5 °F 22.8 °F 60% 30.27 in 10.0 mi WSW 11.5 mph - N/A   Scattered Clouds
5:15 PM 34.9 °F 26.6 °F 22.8 °F 61% 30.27 in 10.0 mi WSW 11.5 mph - N/A   Scattered Clouds
5:35 PM 34.0 °F 25.5 °F 22.8 °F 64% 30.27 in 10.0 mi WSW 11.5 mph - N/A   Clear
5:55 PM 33.6 °F 25.6 °F 22.8 °F 65% 30.27 in 10.0 mi WSW 10.4 mph - N/A   Clear
6:15 PM 32.9 °F 26.7 °F 22.5 °F 65% 30.28 in 10.0 mi WSW 6.9 mph - N/A   Clear
6:35 PM 32.0 °F 24.8 °F 22.1 °F 67% 30.28 in 10.0 mi WSW 8.1 mph - N/A   Clear
6:55 PM 32.0 °F 26.4 °F 21.2 °F 64% 30.29 in 10.0 mi SW 5.8 mph - N/A   Clear
7:15 PM 32.0 °F 26.4 °F 21.2 °F 64% 30.30 in 10.0 mi SW 5.8 mph - N/A   Clear
7:35 PM 31.6 °F 22.1 °F 21.6 °F 66% 30.30 in 10.0 mi WSW 12.7 mph - N/A   Clear
7:55 PM 31.6 °F 24.4 °F 21.2 °F 65% 30.30 in 10.0 mi WSW 8.1 mph - N/A   Clear
8:15 PM 30.7 °F 23.3 °F 21.0 °F 67% 30.31 in 10.0 mi WSW 8.1 mph - N/A   Clear
8:35 PM 31.5 °F 23.5 °F 21.2 °F 66% 30.31 in 10.0 mi WSW 9.2 mph - N/A   Clear
9:15 PM 31.1 °F 23.1 °F 20.7 °F 65% 30.31 in 10.0 mi SW 9.2 mph - N/A   Clear
9:35 PM 31.1 °F 24.5 °F 20.5 °F 65% 30.31 in 10.0 mi SW 6.9 mph - N/A   Clear
9:55 PM 30.9 °F 24.3 °F 21.0 °F 67% 30.31 in 10.0 mi SW 6.9 mph - N/A   Clear
10:15 PM 30.4 °F 25.6 °F 21.0 °F 68% 30.31 in 10.0 mi SSW 4.6 mph - N/A   Clear
10:35 PM 29.5 °F 23.4 °F 21.0 °F 71% 30.31 in 10.0 mi SW 5.8 mph - N/A   Clear
10:55 PM 30.0 °F 22.4 °F 21.2 °F 70% 30.31 in 10.0 mi SW 8.1 mph - N/A   Clear
11:15 PM 30.2 °F 21.3 °F 21.2 °F 69% 30.32 in 10.0 mi SW 10.4 mph - N/A   Clear
11:35 PM 29.8 °F 22.2 °F 21.2 °F 70% 30.32 in 10.0 mi WSW 8.1 mph - N/A   Clear
11:55 PM 29.5 °F 22.5 °F 21.2 °F 71% 30.33 in 10.0 mi SW 6.9 mph - N/A   Clear